Location: Czu?�w
(50.1404°N, 18.9919°E)
Time: 03:16:39
(UTC+00:00)

Meteor 2-1 Rocket - Pass Details

Date: 27 October 2020
Orbit: 830 x 906 km, 81.3° (Epoch: 27 November)

Event Time Altitude Azimuth Distance (km) Brightness Sun altitude
Rises 17:34:15 0° 186° (S) 3,367 7.4 -20.6°
Reaches altitude 10° 17:36:39 10° 186° (S) 2,434 6.6 -21.0°
Maximum altitude 17:42:09 80° 99° (E) 849 4.0 -21.9°
Drops below altitude 10° 17:47:42 10° 14° (NNE) 2,458 6.5 -22.8°
Sets 17:50:08 0° 14° (NNE) 3,402 7.3 -23.2°
